• In Austria
  • List of Countries
  • For 7 days
  • Water Temperature
  • Satellite Maps
  • Weather Map
  • News
  • Weather Widgets
  • user-avatar
    Login

    Hourly Weather Khammouan

    Today, 24 January, Wednesday

    Time Temperature Precipitation Wind Pressure Humidity
    00:00 +20°C° 0 mm 1 mps 720 mmHg 93%
    01:00 +19°C° 0 mm 1 mps 720 mmHg 96%
    02:00 +19°C° 0 mm 1 mps 720 mmHg 96%
    03:00 +19°C° 0 mm 1 mps 719 mmHg 97%
    04:00 +18°C° 0 mm 1 mps 719 mmHg 97%
    05:00 +18°C° 0 mm 1 mps 719 mmHg 97%
    06:00 +18°C° 0 mm 1 mps 720 mmHg 96%
    07:00 +18°C° 0 mm 1 mps 720 mmHg 96%
    08:00 +22°C° 0 mm 1 mps 720 mmHg 79%
    09:00 +26°C° 0 mm 1 mps 721 mmHg 62%
    10:00 +27°C° 0 mm 0 mps 722 mmHg 45%
    11:00 +29°C° 0 mm 0 mps 721 mmHg 38%
    12:00 +33°C° 0 mm 1 mps 721 mmHg 32%
    13:00 +35°C° 0 mm 1 mps 721 mmHg 25%
    14:00 +34°C° 0 mm 1 mps 720 mmHg 26%
    15:00 +33°C° 0 mm 1 mps 719 mmHg 27%
    16:00 +33°C° 0 mm 1 mps 719 mmHg 28%
    17:00 +30°C° 0 mm 1 mps 719 mmHg 38%
    18:00 +27°C° 0 mm 1 mps 718 mmHg 49%
    19:00 +24°C° 0 mm 1 mps 718 mmHg 59%
    20:00 +23°C° 0 mm 1 mps 719 mmHg 66%
    21:00 +22°C° 0 mm 1 mps 719 mmHg 73%
    22:00 +21°C° 0 mm 1 mps 719 mmHg 80%
    23:00 +21°C° 0 mm 1 mps 719 mmHg 84%

    Tomorrow, 25 January, Thursday

    Time Temperature Precipitation Wind Pressure Humidity
    00:00 +21°C° 0 mm 1 mps 719 mmHg 88%
    01:00 +20°C° 0 mm 1 mps 719 mmHg 92%
    02:00 +20°C° 0 mm 1 mps 719 mmHg 93%
    03:00 +20°C° 0 mm 1 mps 719 mmHg 94%
    04:00 +19°C° 0 mm 1 mps 718 mmHg 94%
    05:00 +19°C° 0 mm 1 mps 719 mmHg 93%
    06:00 +19°C° 0 mm 1 mps 719 mmHg 92%
    07:00 +19°C° 0 mm 1 mps 719 mmHg 91%
    08:00 +23°C° 0 mm 1 mps 720 mmHg 75%
    09:00 +27°C° 0 mm 1 mps 721 mmHg 60%
    10:00 +30°C° 0 mm 1 mps 721 mmHg 44%
    11:00 +32°C° 0 mm 1 mps 721 mmHg 40%
    12:00 +34°C° 0 mm 1 mps 720 mmHg 35%
    13:00 +35°C° 0 mm 1 mps 720 mmHg 31%
    14:00 +35°C° 0 mm 1 mps 719 mmHg 33%
    15:00 +34°C° 0 mm 1 mps 719 mmHg 35%
    16:00 +33°C° 0 mm 1 mps 718 mmHg 36%
    17:00 +30°C° 0 mm 1 mps 718 mmHg 47%
    18:00 +28°C° 0 mm 1 mps 719 mmHg 57%
    19:00 +25°C° 0 mm 1 mps 719 mmHg 67%
    20:00 +24°C° 0 mm 1 mps 719 mmHg 73%
    21:00 +24°C° 0 mm 1 mps 720 mmHg 79%
    22:00 +23°C° 0 mm 1 mps 720 mmHg 84%
    23:00 +23°C° 0 mm 1 mps 720 mmHg 86%

    Day after tomorrow, 26 January, Friday

    Time Temperature Precipitation Wind Pressure Humidity
    00:00 +22°C° 0 mm 1 mps 720 mmHg 88%
    01:00 +22°C° 0 mm 1 mps 720 mmHg 91%
    02:00 +22°C° 0 mm 1 mps 720 mmHg 91%
    03:00 +21°C° 0 mm 1 mps 719 mmHg 91%
    04:00 +21°C° 0 mm 1 mps 719 mmHg 92%
    05:00 +21°C° 0 mm 1 mps 719 mmHg 92%
    06:00 +21°C° 0 mm 1 mps 720 mmHg 91%
    07:00 +21°C° 0 mm 1 mps 720 mmHg 91%
    08:00 +24°C° 0 mm 1 mps 721 mmHg 80%
    09:00 +27°C° 0 mm 2 mps 722 mmHg 69%
    10:00 +29°C° 0 mm 2 mps 723 mmHg 58%
    11:00 +30°C° 0 mm 2 mps 722 mmHg 53%
    12:00 +32°C° 0 mm 2 mps 721 mmHg 49%
    13:00 +34°C° 0 mm 2 mps 721 mmHg 45%
    14:00 +32°C° 0 mm 2 mps 720 mmHg 48%
    15:00 +31°C° 0 mm 2 mps 719 mmHg 51%
    16:00 +30°C° 0 mm 2 mps 718 mmHg 54%
    17:00 +28°C° 0 mm 2 mps 719 mmHg 62%
    18:00 +27°C° 0 mm 2 mps 719 mmHg 69%
    19:00 +25°C° 0 mm 2 mps 720 mmHg 77%
    20:00 +24°C° 0 mm 2 mps 720 mmHg 80%
    21:00 +24°C° 0 mm 2 mps 720 mmHg 83%
    22:00 +23°C° 0 mm 1 mps 721 mmHg 86%
    23:00 +23°C° 0 mm 1 mps 721 mmHg 87%

    27 January, Saturday

    Time Temperature Precipitation Wind Pressure Humidity
    00:00 +22°C° 0 mm 1 mps 720 mmHg 88%
    01:00 +22°C° 0 mm 1 mps 720 mmHg 90%
    02:00 +22°C° 0 mm 1 mps 720 mmHg 90%
    03:00 +22°C° 0 mm 1 mps 720 mmHg 91%
    04:00 +22°C° 0 mm 1 mps 719 mmHg 91%
    05:00 +22°C° 0 mm 1 mps 720 mmHg 91%
    06:00 +22°C° 0 mm 1 mps 720 mmHg 90%
    07:00 +22°C° 0 mm 1 mps 720 mmHg 90%
    08:00 +24°C° 0 mm 1 mps 721 mmHg 80%
    09:00 +27°C° 0 mm 1 mps 722 mmHg 70%
    10:00 +29°C° 0 mm 2 mps 722 mmHg 59%
    11:00 +30°C° 0.1 mm 1 mps 722 mmHg 57%
    12:00 +31°C° 0.1 mm 1 mps 721 mmHg 54%
    13:00 +31°C° 0.1 mm 1 mps 720 mmHg 51%
    14:00 +31°C° 0.1 mm 1 mps 719 mmHg 53%
    15:00 +30°C° 0.1 mm 1 mps 719 mmHg 55%
    16:00 +30°C° 0.1 mm 1 mps 718 mmHg 57%
    17:00 +29°C° 0 mm 1 mps 718 mmHg 63%
    18:00 +27°C° 0 mm 1 mps 719 mmHg 69%
    19:00 +26°C° 0 mm 1 mps 719 mmHg 75%
    20:00 +25°C° 0 mm 1 mps 719 mmHg 79%
    21:00 +24°C° 0 mm 1 mps 720 mmHg 83%
    22:00 +23°C° 0 mm 1 mps 720 mmHg 87%
    23:00 +23°C° 0.1 mm 1 mps 720 mmHg 88%

    28 January, Sunday

    Time Temperature Precipitation Wind Pressure Humidity
    00:00 +23°C° 0.1 mm 1 mps 720 mmHg 90%
    01:00 +22°C° 0.1 mm 1 mps 719 mmHg 92%
    02:00 +22°C° 0.6 mm 1 mps 719 mmHg 92%
    03:00 +22°C° 0.6 mm 1 mps 719 mmHg 93%
    04:00 +22°C° 0.6 mm 1 mps 719 mmHg 94%
    05:00 +22°C° 0.4 mm 1 mps 719 mmHg 94%
    06:00 +20°C° 0.4 mm 0 mps 719 mmHg 93%
    07:00 +20°C° 0.4 mm 0 mps 720 mmHg 93%
    08:00 +23°C° 0 mm 0 mps 721 mmHg 81%
    09:00 +26°C° 0 mm 0 mps 721 mmHg 69%
    10:00 +29°C° 0 mm 0 mps 722 mmHg 56%
    11:00 +30°C° 0.1 mm 0 mps 721 mmHg 53%
    12:00 +33°C° 0.1 mm 1 mps 720 mmHg 50%
    13:00 +33°C° 0.1 mm 1 mps 719 mmHg 47%
    14:00 +33°C° 0.1 mm 1 mps 719 mmHg 49%
    15:00 +33°C° 0.1 mm 1 mps 718 mmHg 50%
    16:00 +32°C° 0.1 mm 1 mps 717 mmHg 51%
    17:00 +30°C° 0.1 mm 1 mps 718 mmHg 57%
    18:00 +27°C° 0.1 mm 0 mps 718 mmHg 62%
    19:00 +25°C° 0.1 mm 0 mps 718 mmHg 68%
    20:00 +24°C° 0 mm 0 mps 719 mmHg 71%
    21:00 +24°C° 0 mm 0 mps 719 mmHg 73%
    22:00 +23°C° 0 mm 0 mps 720 mmHg 76%
    23:00 +23°C° 0 mm 0 mps 719 mmHg 77%

    29 January, Monday

    Time Temperature Precipitation Wind Pressure Humidity
    00:00 +22°C° 0 mm 0 mps 719 mmHg 79%
    01:00 +24°C° 0 mm 1 mps 719 mmHg 80%
    02:00 +24°C° 0 mm 1 mps 719 mmHg 81%
    03:00 +23°C° 0 mm 1 mps 719 mmHg 82%
    04:00 +23°C° 0 mm 1 mps 718 mmHg 83%
    05:00 +23°C° 0 mm 1 mps 719 mmHg 84%
    06:00 +23°C° 0 mm 1 mps 719 mmHg 85%
    07:00 +23°C° 0 mm 1 mps 720 mmHg 85%
    08:00 +26°C° 0 mm 1 mps 721 mmHg 74%
    09:00 +29°C° 0 mm 1 mps 721 mmHg 62%
    10:00 +31°C° 0 mm 0 mps 722 mmHg 50%
    11:00 +34°C° 0 mm 1 mps 721 mmHg 45%
    12:00 +35°C° 0 mm 1 mps 721 mmHg 40%
    13:00 +37°C° 0 mm 1 mps 720 mmHg 36%
    14:00 +36°C° 0.1 mm 1 mps 720 mmHg 38%
    15:00 +35°C° 0.1 mm 1 mps 719 mmHg 40%
    16:00 +34°C° 0.1 mm 1 mps 718 mmHg 43%
    17:00 +32°C° 0 mm 1 mps 719 mmHg 51%
    18:00 +30°C° 0 mm 2 mps 719 mmHg 59%
    19:00 +28°C° 0 mm 2 mps 720 mmHg 68%
    20:00 +27°C° 0 mm 2 mps 720 mmHg 72%
    21:00 +26°C° 0 mm 2 mps 720 mmHg 77%
    22:00 +25°C° 0 mm 1 mps 721 mmHg 81%
    23:00 +25°C° 0 mm 1 mps 721 mmHg 83%
    Show more